Temp
23 21 21 23 21 23 23 26 29 29 30 30 29 30 27 28 28 25 27 27 24 22 20 21 21 21 21 21 21 21 20 20 20 20 20 19 18 18 18 19 19 18 18 19 18 17 17 17 17
21 21 22 21 21 22 24 27 28 29 27 28 29 29 29 30 28 26 26 27 25 22 20 21 21 21 21 20 20 20 20 21 21 21 20 19 19 18 18 18 18 18 18 18 17 17 17 17 17
21 20 20 21 21 22 24 27 28 29 28 29 30 30 30 28 28 27 26 26 25 23 21 21 21 21 20 20 20 20 20 21 20 20 20 20 18 18 18 18 18 18 18 18 18 18 17 17 17
19 18 20 20 22 24 25 28 30 28 28 29 30 29 28 28 28 26 25 26 25 24 23 21 21 21 20 20 20 20 20 21 20 20 19 18 18 17 17 17 18 18 18 18 18 18 17 17 17
19 15 17 19 22 25 26 28 29 29 27 28 29 29 26 27 27 26 26 26 26 24 23 22 21 21 20 20 20 20 20 20 20 19 18 17 17 17 18 18 18 18 18 18 18 17 18 17 17
17 18 17 18 21 25 27 28 28 28 28 28 28 27 25 27 26 26 26 26 25 23 21 22 21 20 21 20 20 20 20 20 19 18 18 17 17 17 17 18 18 18 18 17 17 17 17 17 17
19 19 18 19 22 25 26 28 27 27 28 28 30 28 25 25 26 26 26 27 24 22 21 21 20 20 20 21 20 20 20 20 20 19 18 17 17 17 17 18 18 18 17 17 16 17 17 17 18
19 19 19 20 22 25 28 28 27 27 26 29 29 27 23 24 26 26 26 26 23 22 22 21 20 20 20 20 20 20 21 20 20 19 18 18 18 18 17 17 18 17 17 17 17 17 17 17 18
20 18 18 20 23 24 27 27 28 28 27 28 27 28 25 24 23 24 26 26 25 23 22 22 21 21 21 21 20 20 20 20 19 20 19 18 18 18 17 17 17 17 17 17 17 17 17 18 18
18 18 19 22 24 25 25 26 26 26 26 25 27 25 25 22 23 22 24 24 24 23 23 22 22 22 22 21 21 20 20 20 20 19 19 18 18 18 18 17 17 17 17 17 17 17 18 18 18
18 17 20 22 23 22 24 24 26 25 24 25 26 25 25 24 23 22 23 23 22 22 22 23 23 23 23 22 21 20 20 20 19 19 19 19 19 19 18 18 17 16 16 16 16 17 18 18 17
18 19 20 23 22 22 23 24 24 25 25 26 26 27 24 25 22 22 22 22 21 21 21 23 24 24 24 23 22 21 21 21 21 20 20 19 20 19 18 18 17 17 17 17 17 17 18 18 18
17 19 21 21 22 21 22 22 22 23 26 26 24 24 26 24 24 24 22 22 21 21 21 21 22 24 24 23 22 22 22 22 22 21 21 20 20 20 19 19 18 18 17 18 18 17 18 18 19
18 19 20 21 21 21 21 21 22 22 24 25 24 24 25 26 26 24 23 22 23 22 21 21 21 22 23 23 22 22 22 22 22 22 21 21 21 20 20 20 19 19 19 19 19 19 19 19 19
18 17 18 20 20 20 20 19 20 22 23 23 23 23 24 24 25 25 23 22 22 23 22 20 21 21 22 22 23 22 22 22 21 21 21 21 21 20 20 20 20 19 19 19 19 19 19 19 19
16 17 16 19 19 20 19 18 20 22 21 21 22 22 22 23 24 25 25 24 22 23 22 22 21 20 20 20 21 22 22 22 21 21 21 21 20 20 20 20 20 19 19 19 19 19 19 19 19
15 15 15 17 19 20 18 18 21 22 21 21 21 21 22 22 23 25 25 25 25 25 23 22 22 20 20 19 20 21 22 22 21 21 21 20 20 20 20 20 20 19 19 19 19 19 19 18 18
15 15 16 17 18 19 18 17 21 21 22 21 21 22 22 22 23 25 25 25 25 25 25 24 23 22 21 20 19 20 20 21 21 21 21 21 20 20 20 19 19 19 19 18 19 19 18 18 18
16 17 17 18 20 18 18 18 19 20 20 19 20 20 22 23 24 25 25 25 24 24 24 24 24 24 22 20 19 19 19 20 21 21 21 21 21 20 20 19 19 19 19 19 18 18 18 18 18
16 17 18 19 19 18 18 18 20 20 20 19 20 20 21 22 22 23 23 23 22 22 23 23 23 23 23 23 21 20 19 19 18 19 20 21 20 20 20 20 19 19 19 19 18 18 18 18 17
16 15 16 19 18 18 18 17 19 20 20 20 20 20 19 20 19 19 19 20 20 21 21 21 22 22 23 23 23 20 19 18 18 17 18 19 19 19 19 19 19 19 19 19 19 18 17 17 17
15 17 16 19 16 14 16 15 18 20 19 19 19 18 18 19 19 18 17 18 17 17 18 19 20 20 21 22 22 21 19 18 18 19 19 18 17 17 18 17 18 18 18 19 18 18 16 16 15
13 14 18 16 16 16 15 14 19 19 19 17 17 17 18 18 17 16 17 17 16 16 16 16 17 18 19 19 19 20 20 20 20 20 19 19 18 18 18 17 18 17 18 18 18 18 17 16 15
11 12 14 16 16 13 16 14 16 17 18 17 17 17 17 17 16 16 18 17 16 16 16 16 17 17 17 17 18 18 19 19 20 20 20 20 20 19 18 17 16 16 16 16 17 17 17 16 15
10 10 13 13 13 13 17 15 17 18 19 18 17 16 16 17 16 16 16 16 16 16 16 16 16 16 16 17 17 17 17 18 18 19 19 19 19 19 18 17 17 16 16 15 15 16 15 15 15
10 12 14 14 13 14 16 14 16 17 18 18 17 16 16 16 15 15 15 16 16 15 14 14 15 14 14 14 15 16 16 17 17 17 18 18 18 18 18 17 17 16 15 15 15 15 15 14 14
11 12 12 13 15 12 13 16 16 17 16 16 16 16 15 15 15 15 15 15 15 14 14 13 13 13 12 13 13 14 14 14 14 15 15 16 16 15 15 15 15 15 13 13 13 13 13 14 14
11 13 12 12 14 15 15 15 14 14 15 16 15 15 15 15 15 14 14 14 14 13 13 12 12 12 12 12 11 11 12 12 12 13 13 13 13 13 13 13 12 12 12 12 12 12 12 12 12
11 11 14 14 14 13 13 15 17 15 15 15 15 16 15 15 14 13 13 13 13 12 12 11 11 11 10 11 11 11 11 11 11 10 10 10 10 10 10 10 10 9 9 9 10 10 10 10 10
15 15 15 10 12 11 11 13 17 15 15 15 15 16 15 14 13 13 12 13 12 11 11 10 10 9 9 10 10 9 9 9 9 8 8 8 8 8 8 8 8 8 8 7 7 7 7 7 6
Height
784 792 793 791 809 796 798 784 756 763 762 753 755 759 769 762 770 796 771 773 772 780 786 789 793 798 802 805 808 812 815 817 818 820 823 825 826 827 829 829 831 832 834 835 837 838 839 838 839
784 793 795 795 806 806 795 768 766 759 760 756 759 761 765 766 756 768 771 774 776 781 786 790 794 799 802 806 809 813 816 818 819 821 824 825 826 828 829 830 831 833 834 836 838 839 839 840 841
779 798 802 799 798 801 789 763 758 754 756 758 761 755 757 766 759 765 770 774 777 782 787 791 795 800 803 807 811 814 817 818 821 823 824 826 827 828 829 831 832 834 835 837 839 840 841 842 843
790 803 804 802 793 781 772 755 745 754 756 757 757 764 756 761 761 766 771 774 778 783 787 792 796 800 804 808 811 815 817 819 822 824 826 827 829 830 830 832 833 834 837 839 840 842 843 844 845
795 808 820 807 792 772 761 750 749 757 761 762 759 765 767 764 766 769 771 775 779 782 787 792 797 801 805 808 812 815 818 821 823 826 827 828 829 830 831 833 834 836 838 840 842 843 845 846 847
796 799 816 814 793 768 754 746 753 758 757 759 763 763 770 766 767 771 773 776 779 782 788 793 798 802 805 808 812 815 819 821 824 826 827 828 829 831 833 834 835 837 838 841 842 844 846 847 848
788 792 798 798 787 770 758 744 755 758 757 761 754 766 767 766 769 772 774 778 780 785 789 794 799 803 806 809 813 816 819 822 824 826 827 828 830 831 833 835 837 838 839 842 844 845 846 847 848
783 786 791 787 780 767 747 746 745 755 762 750 752 770 779 769 770 773 775 779 781 786 791 795 800 803 806 809 813 816 818 821 823 825 828 828 829 831 833 835 837 838 840 842 844 845 846 847 848
780 791 792 783 773 762 743 747 742 745 756 753 754 759 767 771 773 773 776 780 783 787 791 796 800 804 807 810 813 815 818 820 823 824 827 828 829 830 833 835 837 839 841 842 843 845 846 847 848
779 787 780 765 758 758 748 747 750 755 760 761 758 761 767 773 776 776 776 779 783 787 791 795 799 802 805 807 810 813 817 819 821 824 826 828 829 830 832 834 837 839 841 842 843 844 845 847 848
775 779 770 765 758 758 753 754 753 757 769 763 763 762 765 770 775 778 778 780 784 787 790 793 796 798 803 804 808 811 815 818 820 821 825 827 829 829 831 833 834 837 839 841 842 844 845 846 847
774 770 768 759 760 762 762 758 759 757 761 757 755 754 760 767 772 777 780 781 786 788 789 790 794 798 801 804 808 810 813 816 819 819 822 824 826 827 829 831 832 835 836 838 841 843 844 845 847
771 765 762 760 763 765 761 763 764 760 756 756 758 760 762 766 769 774 779 782 784 787 789 790 791 796 800 802 806 809 811 813 816 818 820 822 824 825 828 828 830 833 834 837 838 840 842 844 846
764 765 763 759 766 764 767 767 766 764 759 759 761 764 765 766 769 773 777 780 782 784 786 791 792 793 797 801 803 807 809 812 814 816 818 821 822 824 825 828 828 830 833 835 837 838 840 842 844
763 773 769 765 764 768 767 776 772 765 761 762 763 765 765 767 770 772 774 778 780 782 785 786 791 793 795 797 802 805 807 810 811 814 816 819 820 822 824 826 828 830 833 834 836 837 838 839 842
768 773 779 767 765 766 771 782 771 765 767 767 764 764 766 766 768 771 772 774 775 779 783 785 786 791 794 796 798 803 805 807 809 811 814 815 817 819 821 823 825 827 830 832 834 835 836 836 837
770 777 779 771 764 766 772 775 765 761 766 768 767 765 763 763 764 768 771 773 774 776 779 782 783 786 791 795 797 800 803 804 806 809 810 812 813 816 818 820 822 824 827 828 831 832 833 833 835
765 770 765 768 763 765 773 775 763 761 762 766 766 764 762 761 761 763 767 769 772 774 776 780 782 784 787 790 795 797 799 801 803 805 806 808 810 813 814 816 818 820 821 823 825 828 830 831 833
757 760 760 757 750 764 767 774 768 763 764 767 765 762 759 758 758 761 764 766 769 772 774 777 779 782 785 787 789 793 795 796 798 800 803 804 806 807 810 812 814 815 815 817 820 823 825 827 831
756 756 757 749 750 762 765 766 761 760 760 762 763 762 760 758 758 759 761 764 767 770 772 774 776 779 781 784 785 787 789 791 794 795 797 798 801 803 804 806 808 811 812 812 813 817 820 823 826
756 763 763 752 760 763 764 770 760 752 752 755 757 759 761 761 763 762 763 765 767 769 771 773 775 776 778 780 783 783 785 787 788 789 791 793 796 797 799 801 803 806 807 809 809 809 811 814 819
760 752 757 746 764 781 767 782 754 750 753 753 758 760 762 761 763 764 766 768 770 770 770 770 771 772 774 776 778 779 780 781 782 783 786 788 790 792 795 796 798 800 802 802 803 805 806 809 811
763 762 750 759 764 766 773 787 748 747 753 757 761 761 761 762 765 768 770 772 773 772 771 770 770 770 771 772 774 775 776 779 779 780 782 784 786 787 788 790 792 795 797 797 798 800 800 801 804
770 771 768 764 764 780 765 776 763 753 749 754 756 759 762 764 766 768 770 771 772 772 772 771 771 771 771 771 773 774 774 775 776 777 778 780 783 783 784 786 789 791 793 793 794 795 796 798 797
778 776 770 777 781 782 750 770 753 743 740 748 755 760 762 763 765 767 769 770 771 772 772 772 772 772 772 772 772 773 774 774 775 775 776 777 779 780 782 783 784 786 788 790 790 790 791 793 792
776 766 763 763 775 769 755 769 755 741 740 745 752 757 760 763 765 768 769 770 771 773 773 773 773 773 772 772 772 772 772 773 773 773 774 775 776 777 777 778 779 781 783 784 784 785 785 786 788
772 768 772 769 751 773 767 753 753 746 749 751 755 759 762 764 766 769 769 770 772 772 773 773 773 773 773 773 772 771 771 771 771 772 772 773 773 774 775 776 777 779 780 781 782 781 781 782 783
767 761 773 770 763 755 755 752 751 758 753 752 756 759 761 763 766 768 770 771 772 774 775 776 776 775 775 774 772 773 772 772 772 772 772 771 771 771 772 774 776 778 778 779 781 781 781 781 780
770 768 754 755 755 760 766 750 730 742 746 751 754 754 759 762 765 768 770 772 774 776 777 777 777 775 775 775 775 775 774 774 773 773 773 772 771 771 772 775 777 777 777 777 778 778 779 780 779
746 745 744 772 763 767 770 763 733 742 746 749 752 754 758 762 765 768 770 772 775 776 777 777 777 776 776 777 776 776 775 774 773 774 773 772 771 771 773 775 776 777 776 776 776 775 777 778 779
Wind_Speed
3 8 13 15 3 4 8 9 7 5 2 4 7 4 7 7 6 4 6 6 27 25 24 23 23 21 20 18 16 15 14 13 12 10 7 8 8 8 8 7 8 8 9 12 13 13 13 14 13
4 7 12 4 5 7 7 12 9 4 9 8 3 4 4 2 10 8 11 11 23 27 23 24 23 22 21 19 18 16 13 12 10 9 9 8 6 7 7 5 6 7 9 13 13 12 13 13 13
7 6 3 4 7 11 9 11 8 9 8 1 2 3 5 5 9 8 15 17 24 25 23 22 24 22 21 19 16 15 13 12 10 8 7 8 7 7 5 6 5 8 8 14 12 11 12 13 12
7 6 4 6 12 15 16 11 5 9 6 2 3 3 6 15 6 10 16 21 23 22 25 21 23 21 20 18 16 15 14 10 8 6 5 5 5 5 8 7 7 11 9 13 12 11 11 12 11
8 4 5 9 16 16 16 16 5 0 9 8 3 3 6 8 15 16 17 21 22 26 23 21 21 20 18 18 17 15 13 10 10 8 7 8 7 9 8 8 8 11 10 15 12 11 9 9 9
5 5 6 13 20 20 14 12 9 5 7 6 1 6 5 13 16 16 18 19 22 24 22 22 20 19 18 18 18 16 12 10 8 9 8 7 8 9 9 10 10 11 13 14 11 10 8 7 7
10 9 14 16 20 18 17 14 9 6 5 6 1 4 9 10 16 17 19 17 25 24 20 21 19 18 17 17 17 18 12 7 9 8 7 8 9 11 12 13 11 11 12 11 10 8 7 6 7
7 6 17 19 19 20 15 17 10 9 8 5 4 3 4 9 12 15 18 16 21 19 22 17 16 17 17 16 17 15 10 8 9 9 7 6 8 12 13 12 11 11 11 10 8 6 5 4 7
13 7 12 20 21 13 11 9 11 7 7 6 8 4 11 16 10 8 16 19 18 22 20 18 17 17 17 14 16 13 11 11 11 10 7 6 7 11 14 11 9 8 8 8 6 5 5 5 7
8 11 19 17 13 15 10 9 9 5 4 9 5 14 17 16 12 9 7 16 16 10 23 23 20 19 19 21 19 16 14 12 12 12 11 6 11 7 10 11 12 11 10 9 7 7 6 7 6
9 14 14 16 11 8 7 6 5 6 6 8 7 10 9 17 12 10 6 16 13 12 8 22 24 19 21 18 16 15 17 16 14 14 13 12 14 13 12 13 14 14 12 11 10 9 9 10 10
12 19 17 11 3 4 1 3 3 5 5 7 4 0 10 6 9 12 9 10 13 12 10 9 13 19 17 17 14 16 19 18 17 19 11 14 16 13 12 10 13 16 13 11 9 8 10 8 6
17 13 14 17 6 4 3 2 3 6 6 4 9 8 4 7 10 15 16 13 21 17 14 15 11 13 18 17 16 15 17 17 17 19 18 16 18 15 14 16 11 13 13 14 14 14 10 12 11
6 15 14 11 8 4 1 0 1 9 9 5 6 4 2 2 1 15 12 12 13 21 22 18 18 11 14 16 16 15 15 15 15 16 18 18 18 17 15 17 16 15 17 12 17 14 14 15 13
7 5 11 4 7 3 2 3 14 9 8 6 8 6 6 7 5 4 19 18 15 11 16 21 20 19 22 16 16 17 16 15 18 16 18 19 19 19 18 17 18 17 16 16 16 16 16 14 15
10 4 8 12 7 6 7 7 11 10 11 11 8 7 9 9 8 10 9 14 23 21 20 18 19 21 22 22 12 17 15 16 16 18 18 20 22 21 20 20 18 21 18 17 17 17 17 17 17
7 8 9 7 14 5 8 7 9 12 11 11 9 9 7 8 11 16 13 11 8 11 18 23 24 23 22 19 21 15 17 17 18 17 20 20 23 24 22 21 21 17 22 21 20 19 20 20 17
16 16 17 15 16 15 12 10 5 7 4 9 9 11 11 8 8 13 15 16 13 11 11 13 16 23 23 22 18 21 16 18 18 20 20 21 23 24 24 24 23 22 20 25 23 22 22 21 21
10 11 14 15 12 21 19 14 16 7 5 6 8 7 7 6 4 9 13 11 14 18 16 16 14 16 17 25 24 23 25 23 21 19 20 22 23 24 27 28 26 26 27 27 29 25 24 23 20
15 8 14 12 12 9 12 19 16 16 10 9 9 8 8 6 6 8 6 2 6 8 10 13 15 14 20 20 22 23 23 25 30 27 22 23 22 25 28 30 30 29 29 28 28 32 24 26 24
12 10 12 9 7 3 2 7 16 14 10 9 8 6 6 6 6 7 9 8 5 8 10 10 17 21 16 20 19 21 16 16 18 26 31 31 25 21 25 28 30 30 28 30 29 34 34 24 28
13 11 16 10 11 5 8 4 13 15 9 9 6 4 6 3 1 5 8 9 6 4 7 11 12 10 13 16 18 15 23 19 22 23 22 23 24 28 31 20 28 29 30 29 30 28 35 26 26
4 11 10 7 8 7 7 1 5 13 11 8 8 7 6 5 7 7 5 7 5 4 5 3 8 14 16 12 10 13 14 14 22 21 18 17 18 19 21 22 28 27 31 32 31 28 28 36 29
6 5 5 7 3 2 9 7 4 6 11 8 7 8 7 7 7 7 7 10 9 7 7 7 5 4 3 9 13 15 16 16 13 12 14 14 16 19 19 19 19 24 28 28 30 31 32 28 33
3 10 3 3 1 4 11 8 8 9 11 9 10 9 8 6 7 7 6 7 8 8 9 9 10 9 8 6 4 9 12 13 15 12 11 11 13 16 15 16 17 20 21 25 29 29 32 33 29
7 1 1 4 4 4 5 5 4 7 9 10 9 9 7 8 6 6 6 5 7 7 9 9 9 10 9 8 7 6 5 5 7 8 8 9 8 7 9 12 14 17 19 21 22 26 30 28 32
5 5 4 4 5 4 5 3 4 2 8 8 8 7 7 7 6 6 6 8 7 10 10 9 10 10 10 9 7 5 6 4 5 4 5 4 4 4 4 5 7 14 11 13 16 20 23 27 28
3 5 4 2 2 3 5 7 4 11 11 10 9 8 8 6 6 5 6 8 10 10 8 9 8 9 9 9 9 7 6 5 4 3 3 2 2 3 4 6 8 8 11 11 13 14 15 15 17
3 2 3 1 1 1 3 2 6 16 12 10 9 8 8 7 6 5 6 11 9 8 8 9 9 9 9 8 9 10 10 10 9 8 6 6 5 3 4 6 4 4 3 4 7 9 11 12 12
3 5 5 3 2 1 1 3 7 9 9 8 8 6 7 7 6 5 7 8 9 8 9 10 10 10 9 8 9 11 11 11 11 12 10 9 7 6 6 3 3 3 4 3 2 1 2 4 5
Wind_Direction
226 294 300 285 254 223 236 242 265 54 40 58 32 358 349 298 27 104 116 91 134 138 156 156 154 152 152 149 147 143 141 138 134 127 134 125 121 117 113 113 120 108 121 117 113 103 95 90 87
112 321 282 292 237 231 227 248 230 158 83 45 314 286 287 65 84 111 131 133 137 141 149 155 155 155 155 155 152 149 147 145 145 143 132 129 121 119 113 111 122 131 122 133 121 109 98 92 91
103 341 312 222 243 237 234 204 221 162 90 110 210 241 231 59 42 115 129 147 138 141 149 157 157 157 159 157 154 149 144 143 134 147 148 143 130 128 110 104 132 136 137 145 134 113 104 96 95
113 30 286 255 238 231 253 271 143 126 114 149 13 244 80 34 68 99 138 149 142 139 158 158 159 159 159 157 156 151 144 141 147 138 148 156 145 124 110 115 108 150 148 147 136 119 108 100 102
135 91 239 267 258 247 222 258 89 346 141 187 170 237 89 65 102 119 141 146 142 143 147 152 159 162 160 159 154 151 144 146 143 140 132 131 129 116 113 126 129 138 137 142 137 121 111 110 111
173 173 191 226 238 248 250 227 133 218 202 127 218 267 86 127 117 131 141 147 136 130 140 150 157 159 159 158 156 154 154 152 152 142 139 133 130 136 124 127 128 143 141 139 135 130 125 120 121
210 188 212 213 238 238 235 258 145 207 159 183 24 341 136 103 122 139 147 142 128 129 137 149 154 158 160 161 163 160 162 167 162 158 170 164 152 149 132 120 136 135 138 138 141 133 132 134 133
233 247 232 230 237 230 221 220 167 187 243 218 125 236 134 116 129 143 138 146 126 135 142 150 161 165 164 165 167 170 179 185 182 170 182 177 160 162 153 140 151 138 152 159 149 146 143 148 149
221 237 239 242 242 251 261 215 165 187 259 248 151 87 112 122 127 130 154 150 135 148 152 162 163 165 168 170 172 180 188 185 192 190 193 201 175 166 175 157 169 178 163 183 176 175 177 167 161
210 215 235 238 250 256 273 58 326 138 245 282 167 105 124 124 140 151 203 130 154 167 154 165 172 174 182 179 180 189 188 201 198 203 197 200 180 169 171 182 170 180 197 206 195 197 178 163 155
211 232 228 249 266 356 336 128 270 164 189 243 198 156 144 144 158 153 207 121 144 192 203 172 179 174 181 170 172 180 188 202 202 202 192 188 193 178 180 192 188 189 196 206 204 200 181 169 186
213 223 255 244 87 9 29 334 272 251 230 276 247 64 133 179 152 153 186 152 169 204 222 201 170 172 175 178 170 182 193 187 199 198 201 187 191 187 190 209 200 201 205 193 206 203 190 177 216
228 241 217 251 358 298 273 257 285 291 278 29 71 42 94 166 171 169 177 197 173 185 209 217 184 175 183 179 189 198 195 191 198 203 203 190 193 194 195 205 195 194 203 195 206 208 201 202 208
226 232 256 224 201 255 54 221 229 257 259 182 137 163 234 210 121 161 176 188 222 184 192 206 212 191 194 184 188 199 197 202 202 204 201 203 201 202 200 202 200 198 209 203 210 209 214 204 213
163 228 239 237 218 165 137 262 236 251 299 267 188 214 221 201 187 253 183 191 216 206 177 185 202 208 206 198 204 198 199 203 205 208 210 209 209 207 209 207 206 206 212 216 214 214 213 211 215
229 200 214 208 231 171 129 250 216 233 256 271 267 229 220 214 212 212 247 202 200 199 200 196 199 205 216 218 207 203 208 207 210 212 213 213 213 213 212 214 221 215 209 219 221 217 215 211 213
184 203 206 219 213 177 175 239 235 220 218 234 254 268 240 207 203 210 215 236 237 206 197 198 197 196 202 215 217 209 215 215 213 213 216 218 216 216 215 216 221 227 216 218 221 221 222 212 214
199 213 196 208 190 197 201 233 291 165 193 222 242 242 249 225 221 212 215 216 237 228 220 223 202 201 205 207 215 222 217 217 221 216 219 218 219 217 218 218 221 219 220 213 214 221 223 221 219
195 200 229 199 211 195 212 208 239 223 177 244 274 285 232 228 225 242 251 234 231 234 226 240 233 222 204 197 201 209 225 227 217 221 227 226 222 219 218 224 222 221 221 226 218 219 223 217 217
229 225 214 243 145 176 204 227 228 220 216 198 228 257 273 272 235 213 150 253 276 274 257 244 245 239 223 225 219 215 224 233 234 228 220 221 224 223 222 222 226 226 227 223 226 216 220 223 211
227 198 243 195 146 254 193 274 219 231 210 193 223 251 305 314 354 358 23 18 339 286 281 259 240 246 244 231 235 221 224 232 230 236 240 236 230 223 232 227 228 229 227 232 228 224 215 214 213
208 217 241 209 164 188 172 258 207 205 200 209 208 209 238 162 312 58 44 47 36 334 277 262 250 241 234 240 236 220 208 205 225 233 237 245 248 253 243 240 234 235 231 233 233 234 222 216 206
217 313 268 133 199 130 188 311 270 188 204 176 202 185 125 122 127 106 102 111 95 59 42 337 274 262 256 253 255 257 267 259 235 229 232 237 253 258 258 253 241 239 239 238 241 237 231 220 211
25 346 329 185 190 267 183 193 221 175 189 173 156 141 145 157 127 126 136 122 102 72 56 46 60 44 312 262 255 258 261 263 277 246 240 251 257 258 256 250 246 248 250 246 249 250 244 235 221
96 216 106 143 167 225 184 194 267 191 162 157 143 142 138 160 130 126 102 107 89 70 47 42 35 44 31 25 324 265 262 264 267 277 261 258 261 266 259 255 262 265 262 261 259 258 255 245 235
171 275 190 192 190 146 360 203 219 112 118 139 134 125 145 126 117 102 99 87 96 73 55 40 33 37 29 25 15 7 331 297 281 281 284 278 276 295 269 257 260 268 269 268 265 263 256 249 247
151 188 103 288 228 105 193 132 25 100 121 119 129 148 155 126 118 98 89 72 62 61 53 45 38 40 29 22 10 12 34 50 13 333 317 320 315 323 332 260 271 277 274 273 273 269 267 258 248
234 176 155 255 254 189 210 164 198 184 167 164 161 174 144 137 126 107 91 85 70 63 50 51 43 42 33 28 18 13 2 348 345 353 2 357 355 329 308 307 297 294 280 284 281 280 273 257 245
165 230 233 308 119 312 128 241 181 174 168 170 166 162 141 134 109 95 88 96 87 78 66 62 51 49 40 36 41 46 46 51 64 60 44 45 53 1 48 32 10 349 353 308 290 280 272 259 239
310 203 204 129 230 104 186 292 127 144 153 134 117 128 130 123 108 107 99 102 93 81 68 63 53 50 43 42 64 57 58 67 69 68 67 68 67 51 66 79 41 0 3 351 339 267 251 226 211